When you browse on this site, cookies collect data to enhance your experience and personalize the content and advertising you see.
Visit our Privacy Policy to learn more. By continuing to use the site, you agree to this use of cookies and data.
  • In Latvia
  • List of Countries
  • For 7 days
  • Water Temperature
  • Satellite Maps
  • Weather Map
  • Weather Widgets
  • user-avatar
    Login

    Hourly Weather Wiktoria

    Today, 25 March, Monday

    Time Temperature Precipitation Wind Pressure Humidity
    00:00 +22°C° 0.4 mm 8 mps 741 mmHg 76%
    01:00 +22°C° 0.4 mm 8 mps 741 mmHg 77%
    02:00 +21°C° 0.4 mm 7 mps 741 mmHg 78%
    03:00 +21°C° 0.4 mm 7 mps 741 mmHg 78%
    04:00 +19°C° 0 mm 5 mps 741 mmHg 77%
    05:00 +17°C° 0 mm 5 mps 741 mmHg 77%
    06:00 +17°C° 0 mm 5 mps 742 mmHg 76%
    07:00 +16°C° 0 mm 5 mps 742 mmHg 75%
    08:00 +16°C° 0.1 mm 5 mps 743 mmHg 70%
    09:00 +16°C° 0.1 mm 6 mps 743 mmHg 65%
    10:00 +16°C° 0.1 mm 7 mps 744 mmHg 59%
    11:00 +16°C° 0 mm 7 mps 744 mmHg 55%
    12:00 +16°C° 0 mm 8 mps 745 mmHg 50%
    13:00 +16°C° 0 mm 8 mps 745 mmHg 46%
    14:00 +16°C° 0 mm 8 mps 746 mmHg 43%
    15:00 +16°C° 0 mm 8 mps 746 mmHg 40%
    16:00 +16°C° 0 mm 7 mps 746 mmHg 37%
    17:00 +16°C° 0 mm 6 mps 747 mmHg 37%
    18:00 +15°C° 0 mm 5 mps 747 mmHg 36%
    19:00 +15°C° 0 mm 4 mps 748 mmHg 36%
    20:00 +14°C° 0 mm 4 mps 748 mmHg 38%
    21:00 +13°C° 0 mm 4 mps 749 mmHg 40%
    22:00 +12°C° 0 mm 4 mps 750 mmHg 43%
    23:00 +11°C° 0 mm 4 mps 750 mmHg 45%

    Tomorrow, 26 March, Tuesday

    Time Temperature Precipitation Wind Pressure Humidity
    00:00 +11°C° 0 mm 4 mps 750 mmHg 47%
    01:00 +10°C° 0 mm 4 mps 750 mmHg 49%
    02:00 +10°C° 0 mm 3 mps 751 mmHg 51%
    03:00 +10°C° 0 mm 3 mps 751 mmHg 53%
    04:00 +9°C° 0 mm 3 mps 751 mmHg 56%
    05:00 +9°C° 0 mm 3 mps 751 mmHg 59%
    06:00 +9°C° 0 mm 3 mps 752 mmHg 62%
    07:00 +9°C° 0 mm 3 mps 752 mmHg 65%
    08:00 +11°C° 0 mm 4 mps 753 mmHg 60%
    09:00 +13°C° 0 mm 5 mps 753 mmHg 55%
    10:00 +15°C° 0 mm 5 mps 753 mmHg 50%
    11:00 +16°C° 0 mm 5 mps 753 mmHg 46%
    12:00 +18°C° 0 mm 4 mps 753 mmHg 42%
    13:00 +19°C° 0 mm 3 mps 753 mmHg 39%
    14:00 +20°C° 0 mm 3 mps 753 mmHg 36%
    15:00 +21°C° 0 mm 3 mps 753 mmHg 34%
    16:00 +22°C° 0 mm 3 mps 752 mmHg 32%
    17:00 +20°C° 0 mm 3 mps 753 mmHg 36%
    18:00 +18°C° 0 mm 3 mps 753 mmHg 40%
    19:00 +17°C° 0 mm 3 mps 754 mmHg 45%
    20:00 +16°C° 0 mm 3 mps 754 mmHg 49%
    21:00 +14°C° 0 mm 3 mps 755 mmHg 52%
    22:00 +14°C° 0 mm 2 mps 755 mmHg 56%
    23:00 +13°C° 0 mm 2 mps 755 mmHg 59%

    Day after tomorrow, 27 March, Wednesday

    Time Temperature Precipitation Wind Pressure Humidity
    00:00 +12°C° 0 mm 2 mps 755 mmHg 62%
    01:00 +12°C° 0 mm 2 mps 755 mmHg 64%
    02:00 +12°C° 0 mm 2 mps 755 mmHg 67%
    03:00 +10°C° 0 mm 2 mps 755 mmHg 70%
    04:00 +10°C° 0 mm 2 mps 755 mmHg 73%
    05:00 +9°C° 0 mm 2 mps 755 mmHg 74%
    06:00 +9°C° 0 mm 2 mps 756 mmHg 75%
    07:00 +9°C° 0 mm 2 mps 756 mmHg 77%
    08:00 +13°C° 0 mm 2 mps 756 mmHg 66%
    09:00 +15°C° 0 mm 2 mps 756 mmHg 56%
    10:00 +18°C° 0 mm 2 mps 756 mmHg 45%
    11:00 +19°C° 0 mm 2 mps 755 mmHg 40%
    12:00 +21°C° 0 mm 2 mps 755 mmHg 35%
    13:00 +24°C° 0 mm 1 mps 754 mmHg 30%
    14:00 +24°C° 0 mm 1 mps 754 mmHg 29%
    15:00 +24°C° 0 mm 1 mps 753 mmHg 28%
    16:00 +25°C° 0 mm 1 mps 752 mmHg 26%
    17:00 +23°C° 0 mm 1 mps 752 mmHg 30%
    18:00 +21°C° 0 mm 1 mps 752 mmHg 33%
    19:00 +20°C° 0 mm 1 mps 752 mmHg 37%
    20:00 +19°C° 0 mm 1 mps 753 mmHg 39%
    21:00 +18°C° 0 mm 1 mps 753 mmHg 41%
    22:00 +18°C° 0 mm 1 mps 753 mmHg 43%
    23:00 +16°C° 0 mm 2 mps 752 mmHg 46%

    28 March, Thursday

    Time Temperature Precipitation Wind Pressure Humidity
    00:00 +16°C° 0 mm 2 mps 752 mmHg 48%
    01:00 +16°C° 0 mm 2 mps 752 mmHg 50%
    02:00 +15°C° 0 mm 2 mps 751 mmHg 54%
    03:00 +14°C° 0 mm 3 mps 751 mmHg 57%
    04:00 +14°C° 0 mm 3 mps 751 mmHg 61%
    05:00 +14°C° 0 mm 3 mps 751 mmHg 66%
    06:00 +14°C° 0 mm 3 mps 751 mmHg 72%
    07:00 +14°C° 0 mm 3 mps 751 mmHg 78%
    08:00 +17°C° 0 mm 3 mps 751 mmHg 71%
    09:00 +20°C° 0 mm 3 mps 751 mmHg 65%
    10:00 +22°C° 0 mm 4 mps 751 mmHg 58%
    11:00 +25°C° 0 mm 3 mps 751 mmHg 49%
    12:00 +26°C° 0 mm 3 mps 750 mmHg 41%
    13:00 +28°C° 0 mm 3 mps 749 mmHg 32%
    14:00 +28°C° 0 mm 3 mps 749 mmHg 29%
    15:00 +28°C° 0 mm 2 mps 748 mmHg 25%
    16:00 +29°C° 0 mm 2 mps 747 mmHg 22%
    17:00 +27°C° 0 mm 2 mps 747 mmHg 25%
    18:00 +25°C° 0 mm 2 mps 747 mmHg 28%
    19:00 +21°C° 0 mm 2 mps 748 mmHg 30%
    20:00 +21°C° 0 mm 2 mps 748 mmHg 33%
    21:00 +21°C° 0 mm 1 mps 748 mmHg 36%
    22:00 +20°C° 0 mm 1 mps 748 mmHg 38%
    23:00 +19°C° 0 mm 2 mps 748 mmHg 44%

    29 March, Friday

    Time Temperature Precipitation Wind Pressure Humidity
    00:00 +18°C° 0 mm 2 mps 747 mmHg 50%
    01:00 +17°C° 0 mm 2 mps 747 mmHg 56%
    02:00 +17°C° 0 mm 2 mps 747 mmHg 63%
    03:00 +16°C° 0 mm 2 mps 746 mmHg 70%
    04:00 +16°C° 0 mm 1 mps 746 mmHg 78%
    05:00 +16°C° 0 mm 2 mps 746 mmHg 82%
    06:00 +16°C° 0 mm 2 mps 746 mmHg 86%
    07:00 +16°C° 0 mm 2 mps 745 mmHg 91%
    08:00 +18°C° 0 mm 2 mps 745 mmHg 76%
    09:00 +21°C° 0 mm 2 mps 745 mmHg 61%
    10:00 +24°C° 0 mm 3 mps 745 mmHg 46%
    11:00 +26°C° 0 mm 4 mps 744 mmHg 39%
    12:00 +27°C° 0 mm 5 mps 744 mmHg 33%
    13:00 +28°C° 0 mm 6 mps 743 mmHg 26%
    14:00 +28°C° 0 mm 6 mps 743 mmHg 27%
    15:00 +27°C° 0 mm 7 mps 742 mmHg 28%
    16:00 +27°C° 0 mm 7 mps 742 mmHg 29%
    17:00 +24°C° 0 mm 6 mps 743 mmHg 36%
    18:00 +22°C° 0 mm 6 mps 743 mmHg 43%
    19:00 +19°C° 0 mm 5 mps 744 mmHg 50%
    20:00 +17°C° 0 mm 5 mps 744 mmHg 50%
    21:00 +16°C° 0 mm 5 mps 745 mmHg 50%
    22:00 +15°C° 0 mm 5 mps 745 mmHg 50%
    23:00 +14°C° 0 mm 5 mps 745 mmHg 54%

    30 March, Saturday

    Time Temperature Precipitation Wind Pressure Humidity
    00:00 +13°C° 0 mm 5 mps 745 mmHg 58%
    01:00 +12°C° 0 mm 4 mps 745 mmHg 62%
    02:00 +11°C° 0 mm 4 mps 745 mmHg 59%
    03:00 +10°C° 0 mm 5 mps 745 mmHg 55%
    04:00 +10°C° 0 mm 5 mps 745 mmHg 52%
    05:00 +10°C° 0 mm 4 mps 746 mmHg 55%
    06:00 +8°C° 0 mm 4 mps 746 mmHg 58%
    07:00 +8°C° 0 mm 3 mps 747 mmHg 61%
    08:00 +10°C° 0 mm 4 mps 747 mmHg 55%
    09:00 +10°C° 0 mm 5 mps 747 mmHg 49%
    10:00 +13°C° 0 mm 6 mps 747 mmHg 43%
    11:00 +13°C° 0.1 mm 6 mps 747 mmHg 40%
    12:00 +14°C° 0.1 mm 6 mps 747 mmHg 37%
    13:00 +15°C° 0.1 mm 7 mps 746 mmHg 34%
    14:00 +14°C° 0.1 mm 7 mps 747 mmHg 34%
    15:00 +14°C° 0.1 mm 7 mps 747 mmHg 34%
    16:00 +14°C° 0.1 mm 7 mps 747 mmHg 35%
    17:00 +13°C° 0 mm 6 mps 748 mmHg 39%
    18:00 +12°C° 0 mm 5 mps 748 mmHg 42%
    19:00 +11°C° 0 mm 4 mps 749 mmHg 46%
    20:00 +10°C° 0 mm 3 mps 750 mmHg 49%
    21:00 +9°C° 0 mm 3 mps 750 mmHg 53%
    22:00 +8°C° 0 mm 3 mps 751 mmHg 56%
    23:00 +7°C° 0 mm 3 mps 751 mmHg 59%
    Show more